Location: Newark
(41.6500°N, 71.4833°W)
Time: 18:41:55
(UTC+00:00)

Courier 1B - Pass Details

Date: 29 January 2020
Orbit: 962 x 1209 km, 28.3° (Epoch: 17 February)

Event Time Altitude Azimuth Distance (km) Brightness Sun altitude
Rises 10:48:21 0° 256° (WSW) 3,943 - -13.8°
Exits shadow 10:51:15 - 243° (WSW) 3,241 9.8 -13.3°
Reaches altitude 10° 10:52:20 10° 236° (WSW) 3,030 9.7 -13.1°
Maximum altitude 10:56:35 16° 202° (SSW) 2,639 9.7 -12.3°
Drops below altitude 10° 11:00:55 10° 167° (SSE) 3,104 10.5 -11.5°
Sets 11:05:06 0° 147° (SSE) 4,089 11.5 -10.7°
